H1 CPF 2 NER 2023 10 23 9 296 01 glonass144 H2 2207501 9144 52984 2023 10 23 0 0 0 2023 10 26 23 45 0 900 1 1 0 0 0 1 H9 10 0 60240 0.00000 0 15522851.913 -18929838.089 -7126366.480 10 0 60240 900.00000 0 15910120.298 -19521370.965 -4006167.421 10 0 60240 1800.00000 0 15995729.028 -19847882.734 -808065.756 10 0 60240 2700.00000 0 15816110.864 -19867326.178 2405744.957 10 0 60240 3600.00000 0 15416592.820 -19547694.453 5572819.626 10 0 60240 4500.00000 0 14849281.372 -18868524.470 8631677.983 10 0 60240 5400.00000 0 14170679.654 -17821928.073 11522997.572 10 0 60240 6300.00000 0 13439138.402 -16413108.127 14190760.069 10 0 60240 7200.00000 0 12712248.902 -14660338.471 16583328.971 10 0 60240 8100.00000 0 12044287.923 -12594409.123 18654438.501 10 0 60240 9000.00000 0 11483821.810 -10257560.291 20364075.687 10 0 60240 9900.00000 0 11071569.693 -7701949.753 21679239.887 10 0 60240 10800.00000 0 10838614.462 -4987717.104 22574566.604 10 0 60240 11700.00000 0 10805035.387 -2180724.548 23032805.038 10 0 60240 12600.00000 0 10979018.598 649933.178 23045141.475 10 0 60240 13500.00000 0 11356481.855 3434548.072 22611363.303 10 0 60240 14400.00000 0 11921228.872 6105440.678 21739861.119 10 0 60240 15300.00000 0 12645626.741 8599516.940 20447469.014 10 0 60240 16200.00000 0 13491778.589 10860636.081 18759145.806 10 0 60240 17100.00000 0 14413143.246 12841693.125 16707502.567 10 0 60240 18000.00000 0 15356535.192 14506331.000 14332184.479 10 0 60240 18900.00000 0 16264422.205 15830212.153 11679117.599 10 0 60240 19800.00000 0 17077425.473 16801797.376 8799633.633 10 0 60240 20700.00000 0 17736918.035 17422599.551 5749488.339 10 0 60240 21600.00000 0 18187612.847 17706901.692 2587791.347 10 0 60240 22500.00000 0 18380031.557 17680950.758 -624132.744 10 0 60240 23400.00000 0 18272749.484 17381660.685 -3823930.419 10 0 60240 24300.00000 0 17834321.113 16854878.775 -6949429.583 10 0 60240 25200.00000 0 17044803.439 16153288.165 -9939850.520 10 0 60240 26100.00000 0 15896811.011 15334034.724 -12736993.393 10 0 60240 27000.00000 0 14396056.099 14456178.681 -15286378.533 10 0 60240 27900.00000 0 12561349.020 13578078.975 -17538316.476 10 0 60240 28800.00000 0 10424056.423 12754821.462 -19448886.043 10 0 60240 29700.00000 0 8027038.327 12035800.384 -20980800.557 10 0 60240 30600.00000 0 5423106.781 11462556.187 -22104144.556 10 0 60240 31500.00000 0 2673069.410 11066961.908 -22796965.944 10 0 60240 32400.00000 0 -156561.285 10869835.578 -23045711.497 10 0 60240 33300.00000 0 -2996097.742 10880037.973 -22845496.779 10 0 60240 34200.00000 0 -5775340.908 11094094.312 -22200204.840 10 0 60240 35100.00000 0 -8426266.491 11496356.216 -21122411.568 10 0 60240 36000.00000 0 -10885621.769 12059697.083 -19633139.005 10 0 60240 36900.00000 0 -13097324.547 12746711.315 -17761441.442 10 0 60240 37800.00000 0 -15014564.190 13511366.187 -15543832.570 10 0 60240 38700.00000 0 -16601517.335 14301035.829 -13023565.166 10 0 60240 39600.00000 0 -17834607.138 15058830.392 -10249777.949 10 0 60240 40500.00000 0 -18703254.469 15726120.861 -7276526.998 10 0 60240 41400.00000 0 -19210091.032 16245151.696 -4161721.528 10 0 60240 42300.00000 0 -19370627.295 16561629.819 -965985.838 10 0 60240 43200.00000 0 -19212391.359 16627179.697 2248529.309 10 0 60240 44100.00000 0 -18773577.188 16401560.236 5419361.755 10 0 60240 45000.00000 0 -18101261.350 15854549.626 8484954.944 10 0 60240 45900.00000 0 -17249265.293 14967418.694 11385852.697 10 0 60240 46800.00000 0 -16275754.787 13733930.987 14065848.400 10 0 60240 47700.00000 0 -15240678.623 12160827.973 16473066.562 10 0 60240 48600.00000 0 -14203154.793 10267779.436 18560956.494 10 0 60240 49500.00000 0 -13218913.902 8086801.447 20289179.959 10 0 60240 50400.00000 0 -12337906.463 5661166.320 21624376.957 10 0 60240 51300.00000 0 -11602173.398 3043849.708 22540796.372 10 0 60240 52200.00000 0 -11044067.624 295578.730 23020780.815 10 0 60240 53100.00000 0 -10684899.802 -2517438.884 23055097.639 10 0 60240 54000.00000 0 -10534063.655 -5326011.922 22643110.794 10 0 60240 54900.00000 0 -10588676.447 -8060587.424 21792790.863 10 0 60240 55800.00000 0 -10833749.112 -10653890.283 20520563.236 10 0 60240 56700.00000 0 -11242878.787 -13043473.312 18850997.060 10 0 60240 57600.00000 0 -11779435.103 -15174073.886 16816340.195 10 0 60240 58500.00000 0 -12398191.237 -16999680.838 14455908.052 10 0 60240 59400.00000 0 -13047332.265 -18485226.884 11815336.792 10 0 60240 60300.00000 0 -13670757.523 -19607836.851 8945713.820 10 0 60240 61200.00000 0 -14210581.079 -20357579.917 5902601.096 10 0 60240 62100.00000 0 -14609725.740 -20737694.355 2744968.922 10 0 60240 63000.00000 0 -14814501.523 -20764274.987 -465940.043 10 0 60240 63900.00000 0 -14777059.592 -20465435.885 -3667795.024 10 0 60240 64800.00000 0 -14457617.327 -19879982.917 -6798386.832 10 0 60240 65700.00000 0 -13826359.293 -19055651.433 -9796839.367 10 0 60240 66600.00000 0 -12864932.142 -18046982.957 -12604798.865 10 0 60240 67500.00000 0 -11567468.310 -16912930.259 -15167577.060 10 0 60240 68400.00000 0 -9941093.095 -15714291.897 -17435225.223 10 0 60240 69300.00000 0 -8005891.436 -14511084.828 -19363517.231 10 0 60240 70200.00000 0 -5794333.622 -13359966.459 -20914821.712 10 0 60240 71100.00000 0 -3350181.992 -12311815.530 -22058845.482 10 0 60240 72000.00000 0 -726922.846 -11409574.595 -22773233.105 10 0 60240 72900.00000 0 2014212.097 -10686445.698 -23044010.339 10 0 60240 73800.00000 0 4806552.873 -10164515.881 -22865862.359 10 0 60240 74700.00000 0 7580531.217 -9853870.826 -22242240.995 10 0 60240 75600.00000 0 10266347.422 -9752234.071 -21185298.639 10 0 60240 76500.00000 0 12796652.867 -9845146.900 -19715649.972 10 0 60240 77400.00000 0 15109136.060 -10106680.809 -17861966.163 10 0 60240 78300.00000 0 17148904.146 -10500651.755 -15660409.605 10 0 60240 79200.00000 0 18870560.431 -10982283.894 -13153920.551 10 0 60240 80100.00000 0 20239891.321 -11500251.301 -10391370.119 10 0 60240 81000.00000 0 21235092.737 -11999010.026 -7426596.923 10 0 60240 81900.00000 0 21847485.668 -12421320.495 -4317347.038 10 0 60240 82800.00000 0 22081692.294 -12710852.264 -1124139.022 10 0 60240 83700.00000 0 21955267.106 -12814759.816 2090922.808 10 0 60240 84600.00000 0 21497800.541 -12686119.652 5265362.750 10 0 60240 85500.00000 0 20749534.933 -12286125.086 8337551.230 10 0 60241 0.00000 0 19759553.110 -11585945.987 11247901.001 10 0 60241 900.00000 0 18583616.947 -10568174.630 13940020.157 10 0 60241 1800.00000 0 17281749.415 -9227798.095 16361795.959 10 0 60241 2700.00000 0 15915660.661 -7572655.442 18466394.337 10 0 60241 3600.00000 0 14546127.532 -5623361.639 20213152.862 10 0 60241 4500.00000 0 13230435.494 -3412701.240 21568352.816 10 0 60241 5400.00000 0 12019989.171 -984516.947 22505856.698 10 0 60241 6300.00000 0 10958190.120 1607861.225 23007600.387 10 0 60241 7200.00000 0 10078669.030 4303581.836 23063931.798 10 0 60241 8100.00000 0 9403944.628 7036552.717 22673790.604 10 0 60241 9000.00000 0 8944563.898 9737943.610 21844726.208 10 0 60241 9900.00000 0 8698758.457 12338808.832 20592753.843 10 0 60241 10800.00000 0 8652630.755 14772723.223 18942051.267 10 0 60241 11700.00000 0 8780862.107 16978323.915 16924501.173 10 0 60241 12600.00000 0 9047913.112 18901653.960 14579087.051 10 0 60241 13500.00000 0 9409666.684 20498211.679 11951152.830 10 0 60241 14400.00000 0 9815445.482 21734621.193 9091539.145 10 0 60241 15300.00000 0 10210319.683 22589854.817 6055611.567 10 0 60241 16200.00000 0 10537608.627 23055956.124 2902198.399 10 0 60241 17100.00000 0 10741471.235 23138232.985 -307542.331 10 0 60241 18000.00000 0 10769475.834 22854911.786 -3511305.239 10 0 60241 18900.00000 0 10575040.368 22236266.514 -6646846.572 10 0 60241 19800.00000 0 10119638.844 21323258.541 -9653196.209 10 0 60241 20700.00000 0 9374679.306 20165743.668 -12471848.583 10 0 60241 21600.00000 0 8322972.116 18820321.452 -15047908.712 10 0 60241 22500.00000 0 6959724.395 17347917.201 -17331170.219 10 0 60241 23400.00000 0 5293016.360 15811198.578 -19277103.438 10 0 60241 24300.00000 0 3343737.208 14271935.882 -20847733.489 10 0 60241 25200.00000 0 1144981.026 12788417.636 -22012390.488 10 0 60241 26100.00000 0 -1259073.831 11413030.844 -22748316.507 10 0 60241 27000.00000 0 -3814756.475 10190108.245 -23041116.934 10 0 60241 27900.00000 0 -6460900.935 9154133.607 -22885046.968 10 0 60241 28800.00000 0 -9131166.510 8328380.796 -22283127.316 10 0 60241 29700.00000 0 -11756584.496 7724043.900 -21247086.588 10 0 60241 30600.00000 0 -14268225.005 7339894.707 -19797131.402 10 0 60241 31500.00000 0 -16599872.338 7162481.349 -17961548.653 10 0 60241 32400.00000 0 -18690596.949 7166858.812 -15776147.884 10 0 60241 33300.00000 0 -20487116.286 7317819.265 -13283554.914 10 0 60241 34200.00000 0 -21945845.735 7571568.855 -10532371.071 10 0 60241 35100.00000 0 -23034554.038 7877778.497 -7576215.124 10 0 60241 36000.00000 0 -23733554.425 8181920.344 -4472667.503 10 0 60241 36900.00000 0 -24036382.487 8427789.486 -1282138.444 10 0 60241 37800.00000 0 -23949933.718 8560102.770 1933316.809 10 0 60241 38700.00000 0 -23494056.663 8527063.632 5111211.672 10 0 60241 39600.00000 0 -22700620.611 8282783.606 8189846.221 10 0 60241 40500.00000 0 -21612098.957 7789457.721 11109505.309 10 0 60241 41400.00000 0 -20279729.462 7019201.803 13813613.324 10 0 60241 42300.00000 0 -18761330.107 5955474.367 16249823.359 10 0 60241 43200.00000 0 -17118863.111 4594023.568 18371020.365 10 0 60241 44100.00000 0 -15415849.553 2943319.720 20136219.900 10 0 60241 45000.00000 0 -13714742.652 1024455.499 21511346.428 10 0 60241 45900.00000 0 -12074368.690 -1129482.103 22469877.625 10 0 60241 46800.00000 0 -10547541.226 -3474542.295 22993343.815 10 0 60241 47700.00000 0 -9178946.576 -5957497.173 23071674.246 10 0 60241 48600.00000 0 -8003386.994 -8517819.866 22703384.657 10 0 60241 49500.00000 0 -7044453.123 -11089973.560 21895603.193 10 0 60241 50400.00000 0 -6313679.573 -13605918.173 20663934.413 10 0 60241 51300.00000 0 -5810217.730 -15997732.616 19032163.741 10 0 60241 52200.00000 0 -5521038.691 -18200245.653 17031807.346 10 0 60241 53100.00000 0 -5421657.602 -20153567.735 14701515.042 10 0 60241 54000.00000 0 -5477349.141 -21805419.831 12086336.433 10 0 60241 54900.00000 0 -5644803.593 -23113163.189 9236862.979 10 0 60241 55800.00000 0 -5874154.507 -24045445.710 6208261.231 10 0 60241 56700.00000 0 -6111293.193 -24583396.104 3059214.691 10 0 60241 57600.00000 0 -6300372.890 -24721315.325 -149206.161 10 0 60241 58500.00000 0 -6386397.073 -24466835.482 -3354724.320 10 0 60241 59400.00000 0 -6317782.234 -23840538.530 -6495064.510 10 0 60241 60300.00000 0 -6048786.081 -22875049.699 -9509165.619 10 0 60241 61200.00000 0 -5541697.249 -21613642.798 -12338373.290 10 0 60241 62100.00000 0 -4768692.319 -20108415.245 -14927588.749 10 0 60241 63000.00000 0 -3713279.704 -18418109.074 -17226350.742 10 0 60241 63900.00000 0 -2371267.255 -16605669.338 -19189828.572 10 0 60241 64800.00000 0 -751210.492 -14735642.579 -20779706.055 10 0 60241 65700.00000 0 1125679.655 -12871524.989 -21964938.390 10 0 60241 66600.00000 0 3226167.778 -11073172.044 -22722366.479 10 0 60241 67500.00000 0 5506138.882 -9394378.856 -23037176.180 10 0 60241 68400.00000 0 7912210.681 -7880733.156 -22903193.068 10 0 60241 69300.00000 0 10383746.737 -6567831.298 -22323006.607 10 0 60241 70200.00000 0 12855186.844 -5479932.146 -21307921.073 10 0 60241 71100.00000 0 15258597.406 -4629105.034 -19877734.050 10 0 60241 72000.00000 0 17526335.062 -4014906.962 -18060346.782 10 0 60241 72900.00000 0 19593711.896 -3624601.583 -15891214.158 10 0 60241 73800.00000 0 21401550.389 -3433909.406 -13412645.341 10 0 60241 74700.00000 0 22898520.809 -3408255.987 -10672969.213 10 0 60241 75600.00000 0 24043163.039 -3504463.611 -7725581.644 10 0 60241 76500.00000 0 24805508.253 -3672813.122 -4627894.030 10 0 60241 77400.00000 0 25168232.935 -3859386.838 -1440204.662 10 0 60241 78300.00000 0 25127297.726 -4008591.741 1775484.016 10 0 60241 79200.00000 0 24692045.567 -4065754.685 4956678.212 10 0 60241 80100.00000 0 23884756.561 -3979678.721 8041611.149 10 0 60241 81000.00000 0 22739679.928 -3705051.690 10970442.729 10 0 60241 81900.00000 0 21301585.349 -3204604.972 13686416.965 10 0 60241 82800.00000 0 19623895.907 -2450931.312 16136954.898 10 0 60241 83700.00000 0 17766481.921 -1427885.358 18274662.428 10 0 60241 84600.00000 0 15793208.582 -131508.358 20058234.612 10 0 60241 85500.00000 0 13769339.916 1429561.463 21453240.183 10 0 60242 0.00000 0 11758907.029 3234209.753 22432772.632 10 0 60242 900.00000 0 9822148.208 5249494.261 22977957.236 10 0 60242 1800.00000 0 8013128.663 7431791.494 23078304.430 10 0 60242 2700.00000 0 6377633.658 9728398.242 22731905.605 10 0 60242 3600.00000 0 4951423.516 12079520.397 21945466.853 10 0 60242 4500.00000 0 3758920.321 14420568.948 20734180.898 10 0 60242 5400.00000 0 2812379.658 16684669.470 19121439.308 10 0 60242 6300.00000 0 2111580.762 18805282.673 17138389.877 10 0 60242 7200.00000 0 1644047.299 20718828.739 14823346.604 10 0 60242 8100.00000 0 1385789.254 22367207.620 12221062.371 10 0 60242 9000.00000 0 1302534.897 23700111.276 9381876.858 10 0 60242 9900.00000 0 1351401.452 24677031.814 6360754.820 10 0 60242 10800.00000 0 1482934.672 25268881.559 3216232.065 10 0 60242 11700.00000 0 1643431.787 25459156.774 9288.565 10 0 60242 12600.00000 0 1777450.058 25244595.274 -3197830.001 10 0 60242 13500.00000 0 1830394.875 24635299.220 -6342819.684 10 0 60242 14400.00000 0 1751077.496 23654316.588 -9364531.083 10 0 60242 15300.00000 0 1494133.333 22336697.605 -12204163.501 10 0 60242 16200.00000 0 1022197.141 20728064.676 -14806416.556 10 0 60242 17100.00000 0 307741.447 18882754.962 -17120576.013 10 0 60242 18000.00000 0 -665501.473 16861613.069 -19101511.764 10 0 60242 18900.00000 0 -1901596.197 14729526.223 -20710567.675 10 0 60242 19800.00000 0 -3391981.343 12552805.352 -21916325.149 10 0 60242 20700.00000 0 -5115587.149 10396522.139 -22695224.814 10 0 60242 21600.00000 0 -7039490.409 8321913.957 -23032033.645 10 0 60242 22500.00000 0 -9120080.779 6383965.758 -22920147.955 10 0 60242 23400.00000 0 -11304690.683 4629270.436 -22361725.996 10 0 60242 24300.00000 0 -13533621.274 3094257.321 -21367647.359 10 0 60242 25200.00000 0 -15742479.936 1803862.756 -19957299.802 10 0 60242 26100.00000 0 -17864731.410 770697.928 -18158197.703 10 0 60242 27000.00000 0 -19834355.444 -5252.135 -16005439.672 10 0 60242 27900.00000 0 -21588499.177 -536387.094 -13541016.221 10 0 60242 28800.00000 0 -23070012.607 -846719.198 -10812981.514 10 0 60242 29700.00000 0 -24229760.373 -970605.008 -7874506.033 10 0 60242 30600.00000 0 -25028612.708 -951036.539 -4782829.502 10 0 60242 31500.00000 0 -25439032.022 -837566.089 -1598135.529 10 0 60242 32400.00000 0 -25446188.967 -683954.485 1617629.038 10 0 60242 33300.00000 0 -25048561.955 -545643.979 4801966.030 10 0 60242 34200.00000 0 -24257996.062 -477164.124 7893044.661 10 0 60242 35100.00000 0 -23099220.255 -529581.381 10830902.684 10 0 60242 36000.00000 0 -21608844.637 -748100.815 13558606.474 10 0 60242 36900.00000 0 -19833881.095 -1169921.322 16023347.604 10 0 60242 37800.00000 0 -17829850.414 -1822434.646 18177455.311 10 0 60242 38700.00000 0 -15658555.663 -2721843.632 19979306.242 10 0 60242 39600.00000 0 -13385615.011 -3872257.304 21394115.169 10 0 60242 40500.00000 0 -11077856.458 -5265300.390 22394592.909 10 0 60242 41400.00000 0 -8800681.989 -6880253.514 22961460.314 10 0 60242 42300.00000 0 -6615509.429 -8684718.454 23083809.786 10 0 60242 43200.00000 0 -4577396.547 -10635781.355 22759308.536 10 0 60242 44100.00000 0 -2732944.198 -12681626.522 21994240.396 10 0 60242 45000.00000 0 -1118563.726 -14763535.020 20803385.675 10 0 60242 45900.00000 0 240821.118 -16818186.595 19209741.163 10 0 60242 46800.00000 0 1332585.185 -18780170.892 17244085.001 10 0 60242 47700.00000 0 2156693.130 -20584605.115 14944393.755 10 0 60242 48600.00000 0 2725459.297 -22169750.525 12355121.636 10 0 60242 49500.00000 0 3062786.595 -23479519.721 9526354.297 10 0 60242 50400.00000 0 3202916.165 -24465770.592 6512852.195 10 0 60242 51300.00000 0 3188740.072 -25090291.056 3373000.732 10 0 60242 52200.00000 0 3069747.682 -25326391.025 167686.522 10 0 60242 53100.00000 0 2899692.003 -25160033.895 -3040879.030 10 0 60242 54000.00000 0 2734074.466 -24590458.789 -6190366.286 10 0 60242 54900.00000 0 2627554.689 -23630265.909 -9219540.537 10 0 60242 55800.00000 0 2631395.409 -22304959.800 -12069457.693 10 0 60242 56700.00000 0 2791051.716 -20651968.258 -14684618.614 10 0 60242 57600.00000 0 3144007.934 -18719176.728 -17014058.770 10 0 60242 58500.00000 0 3717955.340 -16563038.778 -19012351.098 10 0 60242 59400.00000 0 4529389.566 -14246341.205 -20640501.660 10 0 60242 60300.00000 0 5582688.914 -11835717.131 -21866719.829 10 0 60242 61200.00000 0 6869714.358 -9399011.185 -22667047.292 10 0 60242 62100.00000 0 8369949.886 -7002607.206 -23025833.025 10 0 60242 63000.00000 0 10051178.866 -4708830.450 -22936044.515 10 0 60242 63900.00000 0 11870669.185 -2573533.193 -22399408.808 10 0 60242 64800.00000 0 13776818.275 -643964.749 -21426380.405 10 0 60242 65700.00000 0 15711189.426 1042985.163 -20035936.471 10 0 60242 66600.00000 0 17610854.014 2462096.639 -18255203.356 10 0 60242 67500.00000 0 19410941.109 3600629.348 -16118921.853 10 0 60242 68400.00000 0 21047287.011 4458599.129 -13668761.894 10 0 60242 69300.00000 0 22459072.838 5048511.381 -10952500.587 10 0 60242 70200.00000 0 23591338.787 5394564.420 -8023080.298 10 0 60242 71100.00000 0 24397268.946 5531358.495 -4937566.011 10 0 60242 72000.00000 0 24840150.361 5502167.167 -1756023.332 10 0 60242 72900.00000 0 24894924.031 5356846.260 1459659.949 10 0 60242 73800.00000 0 24549263.075 5149470.787 4646984.771 10 0 60242 74700.00000 0 23804133.461 4935801.486 7744059.691 10 0 60242 75600.00000 0 22673814.784 4770689.370 10690803.462 10 0 60242 76500.00000 0 21185381.368 4705528.861 13430107.648 10 0 60242 77400.00000 0 19377666.616 4785867.399 15908936.845 10 0 60242 78300.00000 0 17299754.994 5049272.322 18079345.748 10 0 60242 79200.00000 0 15009065.348 5523544.471 19899394.357 10 0 60242 80100.00000 0 12569105.832 6225353.093 21333944.890 10 0 60242 81000.00000 0 10046993.719 7159348.750 22355326.503 10 0 60242 81900.00000 0 7510842.491 8317790.983 22943856.538 10 0 60242 82800.00000 0 5027123.509 9680706.160 23088209.648 10 0 60242 83700.00000 0 2658110.130 11216569.136 22785628.886 10 0 60242 84600.00000 0 459508.382 12883480.962 22041975.450 10 0 60242 85500.00000 0 -1521629.460 14630794.603 20871616.447 10 0 60243 0.00000 0 -3248623.572 16401122.162 19297152.850 10 0 60243 900.00000 0 -4696448.721 18132642.490 17348991.272 10 0 60243 1800.00000 0 -5852525.545 19761612.251 15064769.025 10 0 60243 2700.00000 0 -6716992.003 21224980.305 12488639.403 10 0 60243 3600.00000 0 -7302441.816 22462995.048 9670431.538 10 0 60243 4500.00000 0 -7633141.896 23421697.377 6664698.891 10 0 60243 5400.00000 0 -7743761.322 24055194.957 3529673.619 10 0 60243 6300.00000 0 -7677664.943 24327622.155 326146.048 10 0 60243 7200.00000 0 -7484843.177 24214702.494 -2883709.665 10 0 60243 8100.00000 0 -7219565.127 23704846.733 -6037541.146 10 0 60243 9000.00000 0 -6937854.184 22799738.783 -9074031.227 10 0 60243 9900.00000 0 -6694893.201 21514383.044 -11934095.116 10 0 60243 10800.00000 0 -6542469.703 19876609.359 -14562037.378 10 0 60243 11700.00000 0 -6526570.273 17926054.702 -16906645.392 10 0 60243 12600.00000 0 -6685227.215 15712662.898 -18922197.066 10 0 60243 13500.00000 0 -7046710.116 13294764.224 -20569362.295 10 0 60243 14400.00000 0 -7628140.414 10736814.554 -21815979.797 10 0 60243 15300.00000 0 -8434589.164 8106888.321 -22637693.423 10 0 60243 16200.00000 0 -9458697.698 5474029.995 -23018434.973 10 0 60243 17100.00000 0 -10680838.581 2905574.823 -22950743.628 10 0 60243 18000.00000 0 -12069811.285 464550.912 -22435915.409 10 0 60243 18900.00000 0 -13584044.103 -1792728.744 -21483979.521 10 0 60243 19800.00000 0 -15173252.278 -3818783.766 -20113501.907 10 0 60243 20700.00000 0 -16780482.698 -5576705.202 -18351219.848 10 0 60243 21600.00000 0 -18344458.982 -7041443.570 -16231514.854 10 0 60243 22500.00000 0 -19802127.856 -8200593.235 -13795734.439 10 0 60243 23400.00000 0 -21091299.026 -9054641.615 -11091376.500 10 0 60243 24300.00000 0 -22153266.715 -9616674.561 -8171152.875 10 0 60243 25200.00000 0 -22935301.855 -9911552.392 -5091951.200 10 0 60243 26100.00000 0 -23392909.428 -9974593.525 -1913716.311 10 0 60243 27000.00000 0 -23491755.661 -9849823.565 1301725.937 10 0 60243 27900.00000 0 -23209183.971 -9587865.990 4491878.542 10 0 60243 28800.00000 0 -22535256.223 -9243565.464 7594792.410 10 0 60243 29700.00000 0 -21473276.172 -8873445.842 10550270.274 10 0 60243 30600.00000 0 -20039773.972 -8533111.324 13301031.810 10 0 60243 31500.00000 0 -18263953.321 -8274701.112 15793817.406 10 0 60243 32400.00000 0 -16186625.290 -8144505.031 17980409.754 10 0 60243 33300.00000 0 -13858674.009 -8180840.223 19818554.449 10 0 60243 34200.00000 0 -11339118.572 -8412277.627 21272763.038 10 0 60243 35100.00000 0 -8692851.695 -8856291.921 22314984.492 10 0 60243 36000.00000 0 -5988148.483 -9518390.827 22925133.706 10 0 60243 36900.00000 0 -3294047.638 -10391759.642 23091468.244 10 0 60243 37800.00000 0 -677712.160 -11457435.634 22810807.270 10 0 60243 38700.00000 0 1798122.943 -12685005.218 22088589.254 10 0 60243 39600.00000 0 4077512.101 -14033795.393 20938767.687 10 0 60243 40500.00000 0 6113373.903 -15454510.740 19383546.650 10 0 60243 41400.00000 0 7869194.792 -16891248.997 17452960.727 10 0 60243 42300.00000 0 9320292.437 -18283812.474 15184306.316 10 0 60243 43200.00000 0 10454587.311 -19570220.204 12621434.019 10 0 60243 44100.00000 0 11272851.024 -20689316.999 9813914.311 10 0 60243 45000.00000 0 11788421.249 -21583371.057 6816091.183 10 0 60243 45900.00000 0 12026395.216 -22200551.631 3686040.768 10 0 60243 46800.00000 0 12022335.302 -22497182.660 484454.080 10 0 60243 47700.00000 0 11820540.844 -22439676.967 -2726535.136 10 0 60243 48600.00000 0 11471958.648 -22006068.515 -5884555.006 10 0 60243 49500.00000 0 11031820.249 -21187076.625 -8928209.136 10 0 60243 50400.00000 0 10557105.783 -19986655.478 -11798275.173 10 0 60243 51300.00000 0 10103942.152 -18422003.775 -14438864.382 10 0 60243 52200.00000 0 9725046.193 -16523032.105 -16798518.841 10 0 60243 53100.00000 0 9467322.042 -14331308.611 -18831223.937 10 0 60243 54000.00000 0 9369715.495 -11898525.630 -20497315.569 10 0 60243 54900.00000 0 9461417.458 -9284550.352 -21764263.570 10 0 60243 55800.00000 0 9760493.786 -6555140.326 -22607315.274 10 0 60243 56700.00000 0 10273000.731 -3779418.843 -23009986.167 10 0 60243 57600.00000 0 10992624.538 -1027215.458 -22964387.518 10 0 60243 58500.00000 0 11900861.387 1633617.281 -22471384.273 10 0 60243 59400.00000 0 12967730.824 4139798.836 -21540579.888 10 0 60243 60300.00000 0 14152993.008 6435019.127 -20190128.250 10 0 60243 61200.00000 0 15407818.580 8472040.336 -18446376.378 10 0 60243 62100.00000 0 16676840.509 10214414.713 -16343344.962 10 0 60243 63000.00000 0 17900500.983 11637747.255 -13922057.214 10 0 60243 63900.00000 0 19017593.626 12730451.501 -11229729.579 10 0 60243 64800.00000 0 19967893.057 13493968.292 -8318840.793 10 0 60243 65700.00000 0 20694760.039 13942440.194 -5246098.262 10 0 60243 66600.00000 0 21147611.568 14101857.420 -2071322.937 10 0 60243 67500.00000 0 21284151.189 14008713.545 1143724.525 10 0 60243 68400.00000 0 21072265.241 13708229.989 4336552.481 10 0 60243 69300.00000 0 20491505.117 13252226.309 7445157.394 10 0 60243 70200.00000 0 19534093.494 12696728.051 10409229.020 10 0 60243 71100.00000 0 18205412.740 12099414.479 13171317.924 10 0 60243 72000.00000 0 16523955.698 11517014.757 15677942.764 10 0 60243 72900.00000 0 14520741.599 11002762.655 17880616.386 10 0 60243 73800.00000 0 12238222.055 10604016.779 19736771.815 10 0 60243 74700.00000 0 9728723.100 10360145.792 21210571.440 10 0 60243 75600.00000 0 7052488.070 10300766.561 22273585.255 10 0 60243 76500.00000 0 4275402.110 10444408.086 22905326.596 10 0 60243 77400.00000 0 1466491.790 10797656.259 23093636.486 10 0 60243 78300.00000 0 -1304697.960 11354814.490 22834910.394 10 0 60243 79200.00000 0 -3970742.697 12098094.061 22134163.869 10 0 60243 80100.00000 0 -6468885.748 12998326.315 21004936.169 10 0 60243 81000.00000 0 -8743390.403 14016167.452 19469033.616 10 0 60243 81900.00000 0 -10747601.403 15103746.507 17556117.035 10 0 60243 82800.00000 0 -12445631.734 16206688.797 15303140.213 10 0 60243 83700.00000 0 -13813605.867 17266431.461 12753648.934 10 0 60243 84600.00000 0 -14840408.479 18222735.385 9956952.636 10 0 60243 85500.00000 0 -15527907.790 19016289.151 6967183.273 99